Weather History for EBAW - December, 2013

Change the Weather History Date:

Tuesday, December 17, 2013

  Actual Average Record
Temperature  
Mean Temperature 42 °F -  
Max Temperature 46 °F 42 °F 53 °F (1998)
Min Temperature 39 °F 33 °F 24 °F (1997)
Degree Days  
Heating Degree Days 22    
Moisture  
Dew Point 38 °F    
Average Humidity 73    
Maximum Humidity 93    
Minimum Humidity 47    
Precipitation  
Precipitation 0.00 in - - ()
Sea Level Pressure  
Sea Level Pressure 30.19 in    
Wind  
Wind Speed 7 mph ()    
Max Wind Speed 13 mph    
Max Gust Speed -    
Visibility 7.8 miles    
Events      
Averages and records for this station are not official NWS values.
T = Trace of Precipitation, MM = Missing Value Source: Averaged Metar Reports

Daily Weather History Graph

Daily Weather History Graph

Search for Another Location

Airport or City:

Trip Planner

Search our weather history database for the weather conditions in past years. The results will help you decide how hot, cold, wet, or windy it might be!

Date:

Astronomy

Dec. 17, 2013 Rise Set
Actual Time 8:41 AM CET 4:35 PM CET
Civil Twilight 8:01 AM CET 5:15 PM CET
Nautical Twilight 7:18 AM CET 5:57 PM CET
Astronomical Twilight 6:38 AM CET 6:38 PM CET
Moon 5:08 PM CET (12/17) 8:18 AM CET (12/17)
Length of Visible Light 9h 13m
Length of Day
7h 53m
Full, 100% of the Moon is Illuminated
Dec 17
Full
Dec 25
Last Quarter
Jan 1
New
Jan 8
First Quarter
Jan 16
Full

Hourly Weather History & Observations

Time (CET) Temp. Windchill Dew Point Humidity Pressure Visibility Wind Dir Wind Speed Gust Speed Precip Events Conditions
12:00 AM 49 °F - 38 °F 57% 30.20 in 25 mi SSW 8.9 mph - -  
12:20 AM 48.2 °F - 37.4 °F 66% 30.18 in - SSW 9.2 mph - N/A   Clear
12:50 AM 48.2 °F - 37.4 °F 66% 30.18 in - SSW 10.4 mph - N/A   Clear
1:00 AM 48 °F - 37 °F 56% 30.19 in 28 mi SSW 8.9 mph - -  
1:20 AM 48.2 °F - 37.4 °F 66% 30.18 in - SSW 9.2 mph - N/A   Clear
1:50 AM 48.2 °F - 37.4 °F 66% 30.15 in - South 9.2 mph - N/A   Clear
2:00 AM 48 °F - 37 °F 55% 30.17 in 25 mi South 8.9 mph - -  
2:20 AM 48.2 °F - 35.6 °F 62% 30.15 in - SSW 10.4 mph - N/A   Clear
2:50 AM 48.2 °F - 35.6 °F 62% 30.15 in - SSW 10.4 mph - N/A   Clear
3:00 AM 49 °F - 35 °F 47% 30.17 in 28 mi SSW 11.2 mph - -  
3:20 AM 50.0 °F - 35.6 °F 58% 30.15 in - SSW 9.2 mph - N/A   Clear
3:50 AM 48.2 °F - 35.6 °F 62% 30.15 in - SSW 9.2 mph - N/A   Clear
4:00 AM 49 °F - 35 °F 48% 30.17 in 28 mi SSW 8.9 mph - -  
4:20 AM 48.2 °F - 35.6 °F 62% 30.15 in - SSW 10.4 mph - N/A   Clear
4:50 AM 48.2 °F - 35.6 °F 62% 30.15 in - SSW 10.4 mph - N/A   Clear
5:00 AM 49 °F - 35 °F 48% 30.17 in 28 mi SSW 11.2 mph - -  
5:20 AM 48.2 °F - 35.6 °F 62% 30.15 in - SW 11.5 mph - N/A   Clear
5:50 AM 46.4 °F 40.7 °F 35.6 °F 66% 30.15 in - SW 12.7 mph - N/A   Clear
6:00 AM 47 °F - 36 °F 54% 30.17 in 28 mi SW 13.4 mph - -  
6:20 AM 46.4 °F 41.5 °F 35.6 °F 66% 30.15 in 6.2 mi SW 10.4 mph - N/A   Overcast
6:50 AM 46.4 °F 41.5 °F 35.6 °F 66% 30.15 in 6.2 mi SW 10.4 mph - N/A   Mostly Cloudy
7:00 AM 47 °F - 36 °F 56% 30.18 in 19 mi SW 11.2 mph - -   Mostly Cloudy
7:20 AM 46.4 °F 41.5 °F 37.4 °F 71% 30.18 in 6.2 mi SSW 10.4 mph - N/A   Mostly Cloudy
7:50 AM 46.4 °F 42.4 °F 37.4 °F 71% 30.18 in 6.2 mi SW 8.1 mph - N/A   Mostly Cloudy
8:00 AM 47 °F - 37 °F 57% 30.20 in 19 mi SW 8.9 mph - -   Mostly Cloudy
8:20 AM 46.4 °F 42.9 °F 37.4 °F 71% 30.18 in 6.2 mi SW 6.9 mph - N/A   Mostly Cloudy
8:50 AM 46.4 °F 42.9 °F 37.4 °F 71% 30.21 in 6.2 mi SW 6.9 mph - N/A   Mostly Cloudy
9:00 AM 47 °F - 38 °F 60% 30.22 in 19 mi SW 6.7 mph - -   Mostly Cloudy
9:20 AM 46.4 °F 43.5 °F 37.4 °F 71% 30.21 in 6.2 mi SW 5.8 mph - N/A   Mostly Cloudy
9:50 AM 46.4 °F 42.4 °F 37.4 °F 71% 30.21 in 6.2 mi SSW 8.1 mph - N/A   Mostly Cloudy
10:00 AM 47 °F - 38 °F 61% 30.24 in 19 mi SSW 6.7 mph - -   Mostly Cloudy
10:20 AM 46.4 °F 42.4 °F 39.2 °F 76% 30.24 in 6.2 mi WSW 8.1 mph - N/A   Mostly Cloudy
10:50 AM 46.4 °F 42.4 °F 39.2 °F 76% 30.24 in 6.2 mi SW 8.1 mph - N/A   Mostly Cloudy
11:00 AM 46 °F - 38 °F 67% 30.26 in 16 mi SW 6.7 mph - -   Mostly Cloudy
11:20 AM 46.4 °F 42.4 °F 39.2 °F 76% 30.24 in 6.2 mi SW 8.1 mph - N/A   Mostly Cloudy
11:50 AM 46.4 °F 43.5 °F 39.2 °F 76% 30.24 in 6.2 mi SW 5.8 mph - N/A   Mostly Cloudy
12:00 PM 46 °F - 39 °F 67% 30.26 in 16 mi SW 6.7 mph - -   Mostly Cloudy
12:20 PM 46.4 °F 44.3 °F 39.2 °F 76% 30.24 in 6.2 mi SW 4.6 mph - N/A   Mostly Cloudy
12:50 PM 46.4 °F 44.3 °F 39.2 °F 76% 30.24 in 6.2 mi WSW 4.6 mph - N/A   Mostly Cloudy
1:00 PM 46 °F - 39 °F 68% 30.26 in 9 mi WSW 4.5 mph - -   Mostly Cloudy
1:20 PM 46.4 °F 43.5 °F 39.2 °F 76% 30.24 in 6.2 mi SW 5.8 mph - N/A   Mostly Cloudy
1:50 PM 46.4 °F 44.3 °F 39.2 °F 76% 30.24 in 6.2 mi SSW 4.6 mph - N/A   Mostly Cloudy
2:00 PM 46 °F - 39 °F 70% 30.25 in 9 mi SSW 4.5 mph - -   Mostly Cloudy
2:20 PM 46.4 °F 44.3 °F 39.2 °F 76% 30.24 in 6.2 mi SW 4.6 mph - N/A   Overcast
2:50 PM 46.4 °F - 39.2 °F 76% 30.21 in 6.2 mi SSW 2.3 mph - N/A   Overcast
3:00 PM 46 °F - 40 °F 71% 30.24 in 9 mi SSW 2.2 mph - -   Overcast
3:20 PM 46.4 °F 44.3 °F 39.2 °F 76% 30.21 in 6.2 mi South 4.6 mph - N/A   Mostly Cloudy
3:50 PM 46.4 °F 45.2 °F 39.2 °F 76% 30.21 in 6.2 mi South 3.5 mph - N/A   Mostly Cloudy
4:00 PM 46 °F - 39 °F 70% 30.24 in 7 mi South 4.5 mph - -   Mostly Cloudy
4:20 PM 46.4 °F - 39.2 °F 76% 30.21 in 6.2 mi Variable 2.3 mph - N/A   Mostly Cloudy
4:50 PM 44.6 °F - 41.0 °F 87% 30.21 in 6.2 mi Variable 1.2 mph - N/A   Mostly Cloudy
5:00 PM 45 °F - 40 °F 78% 30.23 in 7 mi 2.2 mph - -   Mostly Cloudy
5:20 PM 44.6 °F 43.1 °F 41.0 °F 87% 30.21 in 6.2 mi ESE 3.5 mph - N/A   Mostly Cloudy
5:50 PM 44.6 °F 43.1 °F 41.0 °F 87% 30.21 in 6.2 mi ESE 3.5 mph - N/A   Mostly Cloudy
6:00 PM 44 °F - 41 °F 86% 30.23 in 7 mi ESE 4.5 mph - -   Mostly Cloudy
6:20 PM 42.8 °F 40.1 °F 41.0 °F 93% 30.21 in 6.2 mi ESE 4.6 mph - N/A   Overcast
6:50 PM 41.0 °F 38.0 °F 39.2 °F 93% 30.18 in - ESE 4.6 mph - N/A   Clear
7:00 PM 41 °F - 39 °F 88% 30.21 in 7 mi ESE 4.5 mph - -   Mostly Cloudy
7:20 PM 41.0 °F 38.0 °F 39.2 °F 93% 30.18 in - ESE 4.6 mph - N/A   Clear
7:50 PM 41.0 °F 39.0 °F 37.4 °F 87% 30.18 in - East 3.5 mph - N/A   Clear
8:00 PM 41 °F - 38 °F 85% 30.20 in 6 mi East 2.2 mph - -   Mostly Cloudy
8:20 PM 39.2 °F - 37.4 °F 93% 30.18 in - East 2.3 mph - N/A   Clear
8:50 PM 41.0 °F 39.0 °F 37.4 °F 87% 30.18 in - ENE 3.5 mph - N/A   Clear
9:00 PM 42 °F - 38 °F 81% 30.20 in 6 mi ENE 2.2 mph - -   Partly Cloudy
9:20 PM 41.0 °F 37.1 °F 39.2 °F 93% 30.15 in 5.6 mi ESE 5.8 mph - N/A   Unknown
9:50 PM 41.0 °F 37.1 °F 39.2 °F 93% 30.15 in 5.6 mi SE 5.8 mph - N/A   Unknown
10:00 PM 42 °F - 39 °F 85% 30.17 in 6 mi SE 6.7 mph - -   Partly Cloudy
10:20 PM 41.0 °F 38.0 °F 39.2 °F 93% 30.15 in 5.6 mi ESE 4.6 mph - N/A   Unknown
10:50 PM 39.2 °F 35.9 °F 37.4 °F 93% 30.15 in 5.6 mi SE 4.6 mph - N/A   Unknown
11:00 PM 40 °F - 38 °F 89% 30.16 in 6 mi SE 4.5 mph - -   Partly Cloudy
11:20 PM 41.0 °F 38.0 °F 39.2 °F 93% 30.12 in 5.6 mi SE 4.6 mph - N/A   Mostly Cloudy
11:50 PM 39.2 °F 35.0 °F 37.4 °F 93% 30.12 in 6.2 mi SE 5.8 mph - N/A   Mostly Cloudy